User: anonymous   Login
Location: Caltech
(34.1382°N, 118.1253°W)
Time: 12:19:26
(UTC-07:00)
Language:

Cosmos 1758 Rocket - Orbit

View from above orbital plane
View from above orbital plane
View from above satellite
View from above satellite

Ground track
Ground track

The orbit data is extracted from the following two-line orbital elements,

1 16792U 86046B   18170.75252896 +.00000060 +00000-0 +43478-5 0  9997
2 16792 082.4826 216.5364 0024783 159.3792 339.9599 14.83181980729361
Epoch (UTC): 19 June 2018 18:03:38
Eccentricity: 0.0024783
inclination: 82.4826°
perigee height: 602 km
apogee height: 636 km
right ascension of ascending node: 216.5364°
argument of perigee: 159.3792°
revolutions per day: 14.83181980
mean anomaly at epoch: 339.9599°
orbit number at epoch: 72936

The dashed part of the orbit path shows where the satellite is in the earth's shadow,  

DLR